This demonstration page uses our WeatherBlox Daily Observations layout. Learn more.

Hourly Observations for June 24, 2020

Temp ( °F °C ) Dew Point ( °F °C ) Humidity (%) Winds ( mph kmh ) Pressure ( in mb ) Visibility ( mi km ) Precip ( " mm )
12:15 am 00:15 Clear 63 17.4 54 12.3 72 72 SE 6 9 29.98 1015 10 16.0934 0 0
12:35 am 00:35 Clear 61 16.2 54 12.1 77 77 ESE 6 9 29.99 1016 10 16.0934 0 0
12:55 am 00:55 Clear 61 16 55 12.5 80 80 ESE 5 7 29.99 1016 10 16.0934 0 0
1:15 am 01:15 Clear 60 15.7 54 12.1 79 79 ESE 7 11 29.99 1016 10 16.0934 0 0
1:35 am 01:35 Clear 59 15.1 54 12.2 83 83 SE 6 9 30 1016 10 16.0934 0 0
1:55 am 01:55 Partly Cloudy 59 14.8 54 12.4 86 86 ESE 5 7 30 1016 10 16.0934 0 0
2:15 am 02:15 Clear 59 14.8 54 12 83 83 Calm 30 1016 10 16.0934 0 0
2:35 am 02:35 Mostly Cloudy 59 15.1 54 12.1 82 82 SE 5 7 30 1016 10 16.0934 0 0
2:55 am 02:55 Partly Cloudy 58 14.7 54 12.3 86 86 SE 3 6 30 1016 10 16.0934 0 0
3:15 am 03:15 Mostly Cloudy 60 15.7 54 12 79 79 SE 3 6 30 1016 10 16.0934 0 0
3:35 am 03:35 Cloudy 60 15.8 54 12.3 80 80 Calm 30 1016 10 16.0934 0 0
3:55 am 03:55 Cloudy 62 16.5 54 12 75 75 SSE 3 6 29.99 1015 10 16.0934 0 0
4:15 am 04:15 Cloudy 61 16.2 55 12.5 79 79 SSE 3 6 29.99 1016 10 16.0934 0 0
4:35 am 04:35 Partly Cloudy 61 16 54 12.4 79 79 Calm 29.97 1015 10 16.0934 0 0
4:55 am 04:55 Clear 60 15.6 54 12.2 80 80 S 5 7 29.96 1015 10 16.0934 0 0
5:15 am 05:15 Clear 59 15 54 12 82 82 SSE 3 6 29.96 1015 10 16.0934 0 0
5:35 am 05:35 Clear 59 15 54 12.3 84 84 SSE 3 6 29.97 1015 10 16.0934 0 0
5:55 am 05:55 Clear 60 15.5 53 11.9 79 79 S 3 6 29.97 1015 10 16.0934 0 0
6:15 am 06:15 Sunny 59 15 53 11.5 80 80 SE 3 6 29.96 1015 10 16.0934 0 0
6:35 am 06:35 Sunny 58 14.3 54 12.2 87 87 Calm 29.99 1015 10 16.0934 0 0
6:55 am 06:55 Sunny 58 14.3 54 12.1 87 87 Calm 29.99 1015 10 16.0934 0 0
7:15 am 07:15 Sunny 61 16 55 12.5 80 80 SSW 3 6 29.96 1015 10 16.0934 0 0
7:35 am 07:35 Sunny 63 17 55 12.9 77 77 Calm 29.96 1015 10 16.0934 0 0
7:55 am 07:55 Sunny 64 17.7 55 12.7 73 73 S 3 6 29.95 1014 10 16.0934 0 0
8:15 am 08:15 Sunny 65 18.5 56 13.4 72 72 S 5 7 29.94 1014 10 16.0934 0 0
8:35 am 08:35 Sunny 68 19.8 57 13.7 68 68 S 7 11 29.92 1013 10 16.0934 0 0
8:55 am 08:55 Sunny 69 20.7 58 14.3 67 67 SSE 6 9 29.91 1013 10 16.0934 0 0
9:15 am 09:15 Sunny 71 21.5 57 14.1 63 63 SSE 8 13 29.9 1013 10 16.0934 0 0
9:35 am 09:35 Sunny 72 22.3 58 14.3 61 61 SSE 8 13 29.9 1012 10 16.0934 0 0
9:55 am 09:55 Sunny 73 23 58 14.4 59 59 SSE 9 15 29.88 1012 10 16.0934 0 0
10:15 am 10:15 Sunny 75 23.9 59 14.8 57 57 SSE 9 15 29.87 1011 10 16.0934 0 0
10:35 am 10:35 Sunny 76 24.4 59 14.8 55 55 SSE 8 13 29.86 1011 10 16.0934 0 0
10:55 am 10:55 Sunny 77 25 58 14.7 53 53 SSE 7 11 29.85 1011 10 16.0934 0 0
11:15 am 11:15 Sunny 79 25.9 60 15.4 52 52 SSE 7 11 29.84 1010 10 16.0934 0 0
11:35 am 11:35 Sunny 79 26.2 60 15.3 51 51 S 5 7 29.84 1010 10 16.0934 0 0
11:55 am 11:55 Sunny 80 26.6 60 15.5 51 51 SE 5 7 29.83 1010 10 16.0934 0 0
12:15 pm 12:15 Sunny 81 27.4 60 15.5 48 48 S 3 6 29.82 1010 10 16.0934 0 0
12:35 pm 12:35 Sunny 82 27.5 61 16.1 50 50 SSE 9 15 29.81 1009 10 16.0934 0 0
12:55 pm 12:55 Sunny 83 28.1 60 15.7 47 47 SSE 7 11 29.8 1009 10 16.0934 0 0
1:15 pm 13:15 Sunny 83 28.5 60 15.3 45 45 SSE 6 9 29.8 1009 10 16.0934 0 0
1:35 pm 13:35 Sunny 84 28.9 60 15.6 44 44 SSE 5 7 29.79 1009 10 16.0934 0 0
1:55 pm 13:55 Sunny 85 29.5 60 15.6 43 43 SSE 7 11 29.77 1008 10 16.0934 0 0
2:15 pm 14:15 Sunny 85 29.3 61 15.9 44 44 SE 10 17 29.77 1008 10 16.0934 0 0
2:35 pm 14:35 Sunny 86 29.8 60 15.4 42 42 SE 8 13 29.77 1008 10 16.0934 0 0
2:55 pm 14:55 Sunny 87 30.3 60 15.8 41 41 SSE 9 15 29.76 1008 10 16.0934 0 0
3:15 pm 15:15 Sunny 87 30.4 61 16.1 42 42 SSE 9 15 29.75 1008 10 16.0934 0 0
3:35 pm 15:35 Sunny 87 30.7 61 16 41 41 SSE 9 15 29.75 1008 10 16.0934 0 0
3:55 pm 15:55 Sunny 87 30.8 61 16.1 41 41 SE 10 17 29.74 1007 10 16.0934 0 0
4:15 pm 16:15 Partly Cloudy 87 30.6 60 15.7 41 41 SE 14 22 29.73 1007 10 16.0934 0 0
4:35 pm 16:35 Partly Cloudy 87 30.7 60 15.8 41 41 S 13 20 29.73 1007 10 16.0934 0 0
4:55 pm 16:55 Partly Cloudy 87 30.6 61 16.2 42 42 ESE 17 28 29.73 1007 10 16.0934 0 0
5:15 pm 17:15 Partly Cloudy 87 30.8 60 15.8 40 40 SE 13 20 29.73 1007 10 16.0934 0 0
5:35 pm 17:35 Sunny 86 30.2 61 15.9 42 42 SE 13 20 29.72 1006 10 16.0934 0 0
5:55 pm 17:55 Sunny 86 30.1 61 16.2 43 43 SE 14 22 29.72 1006 10 16.0934 0 0
6:15 pm 18:15 Sunny 85 29.7 62 16.5 45 45 ESE 13 20 29.72 1006 10 16.0934 0 0
6:35 pm 18:35 Sunny 85 29.5 62 16.5 45 45 ESE 17 28 29.71 1006 10 16.0934 0 0
6:55 pm 18:55 Sunny 84 29 62 16.6 47 47 ESE 15 24 29.72 1006 10 16.0934 0 0
7:15 pm 19:15 Sunny 84 28.8 62 16.8 48 48 ESE 15 24 29.71 1006 10 16.0934 0 0
7:35 pm 19:35 Sunny 83 28.2 62 16.9 50 50 E 15 24 29.71 1006 10 16.0934 0 0
7:55 pm 19:55 Sunny 80 26.6 62 16.6 54 54 ESE 14 22 29.73 1007 10 16.0934 0 0
8:15 pm 20:15 Sunny 79 26 62 16.6 56 56 E 14 22 29.74 1007 10 16.0934 0 0
8:35 pm 20:35 Sunny 78 25.4 62 16.6 58 58 E 9 15 29.75 1008 10 16.0934 0 0
8:55 pm 20:55 Sunny 77 25 62 16.5 59 59 E 14 22 29.76 1008 10 16.0934 0 0
9:15 pm 21:15 Clear 76 24.5 62 16.4 61 61 E 14 22 29.76 1008 10 16.0934 0 0
9:35 pm 21:35 Clear 76 24.3 61 16.1 60 60 ESE 14 22 29.75 1008 10 16.0934 0 0
9:55 pm 21:55 Clear 75 23.8 61 16 62 62 ESE 14 22 29.77 1008 10 16.0934 0 0
10:15 pm 22:15 Clear 74 23.5 61 16 63 63 ESE 14 22 29.78 1008 10 16.0934 0 0
10:35 pm 22:35 Clear 73 23 60 15.8 64 64 ESE 15 24 29.79 1009 10 16.0934 0 0
10:55 pm 22:55 Clear 73 22.8 60 15.7 64 64 ESE 13 20 29.8 1009 10 16.0934 0 0
11:15 pm 23:15 Clear 72 22.2 60 15.7 67 67 ESE 12 19 29.81 1009 10 16.0934 0 0
11:35 pm 23:35 Clear 71 21.6 60 15.7 69 69 ESE 10 17 29.81 1010 10 16.0934 0 0
11:55 pm 23:55 Clear 70 21.2 60 15.7 71 71 ESE 12 19 29.82 1010 10 16.0934 0 0

Powered by AerisWeather